Regional Weather Roundup
Issued by NWS Wilmington, NC

Home | Current Version | Previous Version | Text Only | Print | Product List | Glossary On
Versions: 1 2 3 4 5 6 7 8 9 10 11 12 13 14 15 16 17 18 19 20 21 22 23 24 25 26 27 28 29 30 31 32 33 34 35 36 37 38 39 40 41 42 43 44 45 46 47 48 49 50
000
ASUS42 KILM 250913
RWRILM
RWRILM
REGIONAL HOURLY WEATHER ROUNDUP
NATIONAL WEATHER SERVICE WILMINGTON NC
500 AM EDT THU AUG 25 2016

NOTE: "FAIR" INDICATES FEW OR NO CLOUDS BELOW 12,000 FEET WITH NO
SIGNIFICANT WEATHER AND/OR OBSTRUCTIONS TO VISIBILITY.

...............WFO WILMINGTON COUNTY WARNING AREA...............

......COASTAL NC AND SC COUNTIES......

CITY           SKY/WX    TMP DP  RH WIND       PRES   REMARKS
WILMINGTON     CLOUDY    71  68  90 NE3       30.14S
N MYRTLE BEACH PTCLDY    69  65  86 N3        30.13F
MYRTLE BEACH   MOCLDY    72  57  60 N6        30.16S

......INLAND NC AND SC COUNTIES.......

CITY           SKY/WX    TMP DP  RH WIND       PRES   REMARKS
LUMBERTON      CLEAR     63  62  97 NW3       30.15S
ELIZABETHTOWN  CLEAR     67  65  95 CALM      30.15S
WHITEVILLE     PTCLDY    67  64  91 CALM      30.14S
FLORENCE       MOCLDY    66  64  93 CALM      30.16S
DARLINGTON     CLEAR     66  64  93 CALM      30.17S
KINGSTREE      FAIR      61  59  94 CALM      30.15S
HARTSVILLE     FAIR      64  63  94 CALM      30.16F
BENNETTSVILLE  FAIR      64  63  94 CALM      30.16S
CONWAY         FAIR      63  61  94 CALM      30.15S
GEORGETOWN     FAIR      66  63  88 CALM      30.14F
MARION         FAIR      63  63 100 CALM      30.15S

....................REST OF NORTH CAROLINA......................

.........EASTERN NC.........

CITY           SKY/WX    TMP DP  RH WIND       PRES   REMARKS
CAPE HATTERAS  CLEAR     70  64  81 NE5       30.14F
JACKSONVILLE   CLOUDY    69  68  96 CALM      30.15S
MOREHEAD CITY  CLEAR     70  69  97 NE3       30.14S
KENANSVILLE    NOT AVBL
NEW BERN       CLEAR     69  68  96 CALM      30.16S
ELIZABETH CITY CLEAR     69  68  96 CALM      30.17R

.........CENTRAL NC.........

CITY           SKY/WX    TMP DP  RH WIND       PRES   REMARKS
RALEIGH DURHAM PTCLDY    66  63  90 CALM      30.18R
ROCKY MOUNT    CLEAR     61  61 100 CALM      30.17S
ROANOKE RAPIDS NOT AVBL
FAYETTEVILLE   PTCLDY    68  63  84 CALM      30.15F
HOFFMAN        CLEAR     64  62  95 N1        30.17S

.........WESTERN NC.........

CITY           SKY/WX    TMP DP  RH WIND       PRES   REMARKS
CHARLOTTE      PTCLDY    72  63  73 S5        30.19S
GREENSBORO     PTCLDY    69  63  81 SW5       30.17F
HICKORY        NOT AVBL
BOONE          NOT AVBL
ASHEVILLE      NOT AVBL

.....................REST OF SOUTH CAROLINA.....................

.........EASTERN SC.........

CITY           SKY/WX    TMP DP  RH WIND       PRES   REMARKS
CHARLESTON     CLEAR     69  66  90 N6        30.13S
BEAUFORT MCAS  CLEAR     72  68  87 N6        30.12S
HILTON HEAD    CLEAR     77  70  78 VRB7      30.12S

.........CENTRAL SC.........

CITY           SKY/WX    TMP DP  RH WIND       PRES   REMARKS
COLUMBIA       CLEAR     71  65  81 CALM      30.15S
ORANGEBURG     CLEAR     67  65  93 CALM      30.16S
SUMTER SHAW    CLEAR     67  64  89 NE3       30.14S

.........WESTERN SC.........

CITY           SKY/WX    TMP DP  RH WIND       PRES   REMARKS
GREENVILLE     NOT AVBL
ROCK HILL      CLEAR     71  64  78 CALM      30.19S
ANDERSON       CLEAR     70  69  97 CALM      30.18R FOG
CLEMSON        NOT AVBL
GREENWOOD      CLEAR     69  66  90 CALM      30.19R


...................COASTAL AND OFFSHORE REPORTS..................

................LOCAL PIERS AND NC RESERVE................


STATION/POSITION TIME  SKY/WX   TEMP    WIND        PRES    VSBY
                                AIR SEA DIR/SP/G
                 (UTC)          (F)     (DEG/KT/KT) (MB)    (MI)
JOHNY MRCER PIER 0800            81 84  110/  9/ 10 1019.4F
NC RESRV MASNBRO NOT AVBL
OCEAN CREST PIER NOT AVBL
SPRINGMAID  PIER 0800            71 84  300/  7/  8 1020.2F


................COASTAL AND OFFSHORE BUOYS................


STATION/POSITION TIME  SKY/WX   TEMP    WIND        PRES    VSBY
                                AIR SEA DIR/SP/G
                 (UTC)          (F)     (DEG/KT/KT) (MB)    (MI)
DIMNDSHOAL 41025 0850            80 84  110/  6/  8 1020.4F
WVE H/P(F/S)=  3/11 SWL H/P/D(F/S/D)=  3/ 70/11

CAPE LOOKOUT     0900            80      90/  7/  9 1020.2S
ONSLOW BAY 41036 NOT AVBL
ONSLOW BAY 41064 0808            81 84  100/ 10/ 14 1020.0F
ONSLOW BAY 41159 0825               84                N/A
WVE H/P(F/S)=  3/ 6

5SE WRITBC 41038 0808            81 83  110/ 10/ 14 1021.2F
MASNBO INL 41110 0806               83                N/A
WVE H/P(F/S)=  2/ 7

WILM HARBR 41108 0826               84                N/A
WVE H/P(F/S)=  2/11 SWL H/P/D(F/S/D)=  2/140/11

27SE WRITB 41037 0808            82 84  100/ 10/ 14 1020.1F
FRYING PAN 41013 0800            82 84  100/ 10/ 12 1019.5F
SUNST NRSH 41024 0808            75 85   20/ 12/ 14 1020.0F
CAPRS NRSH 41029 0808            78 84   20/ 10/ 14 1019.6F
EDISTO     41004 0850            82 84   40/ 10/ 12 1018.7F
WVE H/P(F/S)=  3/11 SWL H/P/D(F/S/D)=  2/ 80/11



..........OFFSHORE BUOYS BEYOND 100 NM OFFSHORE...........
.....IN A TRIANGLE---HAT TO BERMUDA TO BAHAMAS TO HAT.....


STATION/POSITION TIME  SKY/WX   TEMP    WIND        PRES    VSBY
                                AIR SEA DIR/SP/G
                 (UTC)          (F)     (DEG/KT/KT) (MB)    (MI)
150E HAT   41001 NOT AVBL
W BERMUDA  41048 0850            82 84   50/ 19/ 23 1015.7F
WVE H/P(F/S)=  5/ 6 SWL H/P/D(F/S/D)=  2/ 90/ 8

ATLANTIC S 41049 0850            83 85  120/ 14/ 16 1016.8S
WVE H/P(F/S)=  6/ 8 SWL H/P/D(F/S/D)=  5/130/ 8

E BAHAMAS  41046 0800            85 85  100/ 17/ 21 1013.4R
NE BAHAMAS 41047 0800            84 86  130/  4/  6 1014.6R
120E CANVRL41010 NOT AVBL

END



USA.gov is the U.S. government's official web portal to all federal, state and local government web resources and services.